Find Starlink 31458

NORAD ID: 59501 Int'l Des: 2024-071 Owner: SPXS Country: US Constellation: starlink operational
LEOCIRCULAR

現在のビュー

3D地球を読み込み中...

About Starlink 31458

Starlink 31458 (NORAD 59501) is a starlink constellation satellite (v2 mini) launched Apr 13, 2024 by SPXS of US. It operates in LEO, CIRCULAR orbit with a mass of 730.00 kg.

Starlink 31458について

説明を読み込み中...

次回通過

Passes for default location (London). Set your location on the main map for personalized predictions.

高度履歴

Loading altitude history...

軌道要素

1 59501U 24071T 26171.19187138 -.00000839 00000-0 -20991-4 0 9996
2 59501 43.0033 120.7210 0001340 265.4997 94.5702 15.27567496123889
Epoch: Jun 20, 2026 • Age: 11 hours

現在のステータス

高度 495.4 km
速度 7.62 km/s
衛星直下点 -42.73°S, 99.08°W
打ち上げ日 Apr 13, 2024
運用期間 2.1 years
タイプ internet

技術仕様

分類 Payload
質量 730.00 kg
乾燥質量 700.00 kg
総質量 730.00 kg
長さ 0.30 m
直径 4.10 m
スパン 29.00 m
形状 Box + pan
製造者 SPXS
バスタイプ Starlink V2M
フェーズステータス In Orbit
所有者/国 SPXS/US

Most Searched